Location: Seattle
(47.6064°N, 122.3308°W)
Time: 05:09:36
(UTC-07:00)

Tiros 1 - Pass Details

Date: 07 August 2021
Orbit: 630 x 663 km, 48.4° (Epoch: 25 September)

Event Time Altitude Azimuth Distance (km) Brightness Sun altitude
Rises 21:45:30 0° 286° (WNW) 2,983 11.9 -11.0°
Reaches altitude 10° 21:47:55 10° 281° (W) 2,064 10.8 -11.3°
Maximum altitude 21:52:29 48° 207° (SSW) 845 7.6 -11.9°
Enters shadow 21:55:44 18° 139° (SE) 1,580 8.5 -12.3°
